Location: Sternwarte Hubelmatt
(47.0367°N, 8.3053°E)
Time: 15:22:55
(UTC+01:00)

BlueWalker 3 - Pass Details

Date: 22 January 2026
Orbit: 451 x 461 km, 53.2° (Epoch: 13 February)

Event Time Altitude Azimuth Distance (km) Brightness Sun altitude
Rises 17:45:45 0° 190° (S) 2,442 5.9 -5.7°
Reaches altitude 10° 17:48:36 10° 165° (SSE) 1,574 4.6 -6.1°
Maximum altitude 17:50:35 14° 131° (SE) 1,335 3.8 -6.4°
Drops below altitude 10° 17:52:33 10° 97° (E) 1,579 3.9 -6.7°
Enters shadow 17:53:18 - 88° (E) 1,772 4.1 -6.9°
